Tracking 19149 objects as of 22-Apr-2018
HD Live streaming from Space Station
objects crossing your sky now

INTELSAT 2-F4

Track INTELSAT 2-F4 now!
INTELSAT 2-F4 is classified as:


NORAD ID: 2969
Int'l Code: 1967-094A
Perigee: 35,740.9 km
Apogee: 35,839.6 km
Inclination: 3.2 °
Period: 1,435.9 minutes
Semi major axis: 42161 km
RCS: 2.5118 m2 (large)
Launch date: September 28, 1967
Source: International Telecommunications Satellite Organization (ITSO)
Launch site: AIR FORCE EASTERN TEST RANGE (AFETR)
aabbcc
Your satellite tracking list
Your tracking list is empty




NASA's NSSDC Master Catalog

Two Line Element Set (TLE):
1  2969U 67094A   18111.62073725 +.00000085 +00000-0 +00000-0 0  9999
2  2969 003.1916 295.5830 0011704 239.5964 087.7779 01.00284409085445
Source of the keplerian elements: AFSPC